Regional Weather Roundup
Issued by NWS

Home | Current Version | Previous Version | Graphics & Text | Print | Product List | Glossary On
Versions: 1 2 3 4 5 6 7 8 9 10 11 12 13 14 15 16 17 18 19 20 21 22 23 24 25 26 27 28 29 30 31 32 33 34 35 36 37 38 39 40 41 42 43 44 45 46 47 48 49 50
000
ASUS43 KLSX 282059
RWRMO

WEATHER SUMMARY FOR MISSOURI
NATIONAL WEATHER SERVICE SPRINGFIELD MO
400 PM CDT THU AUG 28 2014

NOTE: "FAIR" INDICATES FEW OR NO CLOUDS BELOW 12,000 FEET WITH NO
       SIGNIFICANT WEATHER AND/OR OBSTRUCTIONS TO VISIBILITY.
       CURRENT SKY AND/OR WEATHER CONDITIONS ARE NOT AVAILABLE FOR
       CHILLICOTHE AND FARMINGTON.

MOZ001>031-035>038-043-044-053-054-282200-
...NORTHERN AND WESTERN MISSOURI...

CITY           SKY/WX    TMP DP  RH WIND       PRES   REMARKS
KANSAS CTY INT MOSUNNY   91  69  48 S14       29.89F HX  96
KANSAS C DTWN  MOSUNNY   95  67  39 S16       29.88F HX  99
LEE`S SUMMIT   MOSUNNY   90  69  50 SE12G17   29.91F HX  94
ST JOSEPH      MOSUNNY   90  72  55 S15       29.86F HX  97

$$
MOZ066>068-077>081-088>096-101>105-282200-
...SOUTHWEST MISSOURI...

CITY           SKY/WX    TMP DP  RH WIND       PRES   REMARKS
SPRINGFIELD    PTSUNNY   93  57  29 S6        29.95F HX  91
JOPLIN         SUNNY     93  60  33 S13G26    29.93F HX  93

$$
MOZ032>034-039>042-045>050-055>058-069>072-282200-
...CENTRAL MISSOURI...

CITY           SKY/WX    TMP DP  RH WIND       PRES   REMARKS
COLUMBIA       MOSUNNY   93  67  42 S12       29.94F HX  96
JEFFERSON CITY MOSUNNY   93  68  43 S6        29.92F HX  97
ROLLA          MOSUNNY   90  64  42 S7        29.94F HX  91
SEDALIA        MOSUNNY   93  69  45 S8        29.93F HX  98
OSAGE BEACH    MOSUNNY   93  64  38 SE9       29.93F HX  95

$$
MOZ051-052-059>065-282200-
...EAST CENTRAL MISSOURI...

CITY           SKY/WX    TMP DP  RH WIND       PRES   REMARKS
ST LOUIS INTL  MOSUNNY   92  72  51 S9        29.95F HX  99
SPIRIT OF STL  PTSUNNY   90  72  55 SE5       29.93F HX  97
ST CHARLES     MOSUNNY   89  74  60 E8        29.94F HX  98

$$
MOZ072>076-082>087-097>100-106>115-282200-
...SOUTH CENTRAL AND SOUTHEAST MISSOURI...

CITY           SKY/WX    TMP DP  RH WIND       PRES   REMARKS
CAPE GIRARDEAU MOSUNNY   82  74  76 SW12      29.95F
FARMINGTON     PTSUNNY   91  70  49 S5        29.98F HX  97
POPLAR BLUFF   SUNNY     91  66  43 SW6       29.94F HX  93
WEST PLAINS    MOSUNNY   91  61  36 S9        29.99F HX  91

$$


USA.gov is the U.S. government's official web portal to all federal, state and local government web resources and services.